Location: Umburanas
(4.5000°S, 37.9667°W)
Time: 11:18:39
(UTC+00:00)

H-2A R/B - Pass Details

Date: 19 November 2019
Orbit: 500 x 543 km, 97.3° (Epoch: 03 December)

Event Time Altitude Azimuth Distance (km) Brightness Sun altitude
Rises 20:50:48 0° 181° (S) 2,706 6.7 -6.4°
Reaches altitude 10° 20:53:02 10° 189° (S) 1,808 5.9 -6.9°
Maximum altitude 20:56:41 39° 258° (WSW) 819 4.5 -7.7°
Drops below altitude 10° 21:00:18 10° 328° (NNW) 1,782 5.6 -8.6°
Sets 21:02:29 0° 336° (NNW) 2,662 6.4 -9.1°
